Regional Weather Roundup
Issued by NWS

Home | Current Version | Previous Version | Text Only | Print | Product List | Glossary Off
Versions: 1 2 3 4 5 6 7 8 9 10 11 12 13 14 15 16 17 18 19 20 21 22 23 24 25 26 27 28 29 30 31 32 33 34 35 36 37 38 39 40 41 42 43 44 45 46 47 48 49 50

000
ASUS43 KFSD 240802
RWRSD

WEATHER ROUNDUP FOR SOUTH DAKOTA
NATIONAL WEATHER SERVICE SIOUX FALLS SD
300 AM CDT FRI OCT 24 2014

NOTE: "FAIR" INDICATES FEW OR NO CLOUDS BELOW 12,000 FEET WITH NO
SIGNIFICANT WEATHER AND/OR OBSTRUCTIONS TO VISIBILITY.


SDZ001>005-009-010-012>017-240900-
NORTHWEST AND NORTH CENTRAL SOUTH DAKOTA

CITY           SKY/WX    TMP DP  RH WIND       PRES   REMARKS
FAITH            N/A     52  27  38 SW8       29.86F
MOBRIDGE       MOCLDY    45  40  82 E5        29.82F
$$

SDZ012>016-024>037-041>051-057-063-072>074-240900-
SOUTHWEST AND SOUTH CENTRAL SOUTH DAKOTA

CITY           SKY/WX    TMP DP  RH WIND       PRES   REMARKS
RAPID CTY ARPT CLOUDY    47  33  58 NW6       29.91F
PIERRE         MOCLDY    42  35  76 W5        29.85F
CUSTER         CLOUDY    54  25  32 W8        30.01F
ELLSWORTH AFB  CLOUDY    49  33  53 W7        29.91S
PHILIP         MOCLDY    41  31  67 W3        29.89S
PINE RIDGE     CLOUDY    37  34  89 CALM      29.95R
SPEARFISH      FAIR      48  32  53 SW5       29.94S
WINNER         FAIR      53  35  50 SW7       29.88S
$$

SDZ004>011-016>023-039-040-240900-
NORTHEAST SOUTH DAKOTA

CITY           SKY/WX    TMP DP  RH WIND       PRES   REMARKS
ABERDEEN       CLOUDY    39  38  96 SW3       29.84S
WATERTOWN      CLOUDY    47  44  90 SE8       29.85S
SISSETON         N/A     55  48  77 VRB5      29.82F
$$

SDZ017-020-022-023-036>040-048>070-240900-
SOUTHEAST SOUTH DAKOTA

CITY           SKY/WX    TMP DP  RH WIND       PRES   REMARKS
SIOUX FALLS    MOCLDY    55  50  83 S12       29.87F
HURON          CLOUDY    47  44  90 SE3       29.83S
CHAMBERLAIN    CLOUDY    46  36  68 W5        29.86S
MITCHELL       MOCLDY    48  47  96 S5        29.84S
YANKTON        PTCLDY    59  54  82 SW9       29.87F
$$

ABBREVIATIONS USED IN REMARKS
   TC - TEMPERATURE IN CELSIUS
  WCI - WIND CHILL INDEX
   HX - HEAT INDEX
  VSB - VISIBILITY




USA.gov is the U.S. government's official web portal to all federal, state and local government web resources and services.